YD2CLX-16 Weather Reports


time (UTC)temp
C
wind
direction
speed
KPH
gust
KPH
rain 1hr
cm
rain 24hr
cm
rain mn
cm
humidity
%
barometer
mb
20260509210030 25 110 12.9 0.0 0.00 0.00 0.00 100 1008.0
20260509204531 25 110 12.9 0.0 0.00 0.00 0.00 100 1009.0
20260509203031 25 110 12.9 0.0 0.00 0.00 0.00 100 1009.0
20260509201531 25 110 12.9 0.0 0.00 0.00 0.00 100 1009.0
20260509200031 25 110 12.9 0.0 0.00 0.00 0.00 100 1009.0
20260509194531 25 110 12.9 0.0 0.00 0.00 0.00 100 1009.0
20260509193030 25 110 12.9 0.0 0.00 0.00 0.00 100 1009.0
20260509191531 25 110 12.9 0.0 0.00 0.00 0.00 100 1009.0
20260509190033 25 110 12.9 0.0 0.00 0.00 0.00 100 1009.0
20260509184531 25 110 12.9 0.0 0.00 0.00 0.00 100 1009.0
20260509183030 25 110 11.3 0.0 0.00 0.00 0.00 100 1010.0
20260509181531 25 110 11.3 0.0 0.00 0.00 0.00 100 1010.0
20260509180033 25 230 8.0 0.0 0.00 0.00 0.00 100 1010.0
20260509174531 25 230 8.0 0.0 0.00 0.00 0.00 100 1010.0
20260509173031 25 230 8.0 0.0 0.00 0.00 0.00 100 1010.0
20260509171530 25 230 8.0 0.0 0.00 0.00 0.00 100 1010.0
20260509170032 25 230 8.0 0.0 0.00 0.00 0.00 100 1010.0
20260509164530 25 230 8.0 0.0 0.00 0.00 0.00 100 1010.0
20260509163030 25 230 8.0 0.0 0.00 0.00 0.00 100 1010.0
20260509161530 25 230 8.0 0.0 0.00 0.00 0.00 100 1010.0
20260509160034 25 230 8.0 0.0 0.00 0.00 0.00 100 1011.0
20260509154530 25 230 8.0 0.0 0.00 0.00 0.00 100 1010.0
20260509153031 25 230 8.0 0.0 0.00 0.00 0.00 100 1011.0
20260509151530 25 230 8.0 0.0 0.00 0.00 0.00 100 1010.0
20260509150034 25 230 8.0 0.0 0.00 0.00 0.00 100 1011.0
20260509144531 25 230 8.0 0.0 0.00 0.00 0.00 100 1010.0
20260509143031 25 230 8.0 0.0 0.00 0.00 0.00 100 1011.0
20260509141531 25 230 8.0 0.0 0.00 0.00 0.00 100 1010.0
20260509140035 25 230 8.0 0.0 0.00 0.00 0.00 100 1011.0
20260509134531 25 230 8.0 0.0 0.00 0.00 0.00 100 1010.0
20260509133031 27 200 17.7 0.0 0.00 0.00 0.00 89 1010.0
20260509131530 27 200 17.7 0.0 0.00 0.00 0.00 89 1010.0
20260509130035 27 200 17.7 0.0 0.00 0.00 0.00 89 1010.0
20260509124531 27 200 17.7 0.0 0.00 0.00 0.00 89 1010.0
20260509123030 27 310 16.1 0.0 0.00 0.00 0.00 89 1010.0
20260509121531 27 310 16.1 0.0 0.00 0.00 0.00 89 1009.0
20260509120036 27 310 16.1 0.0 0.00 0.00 0.00 89 1009.0
20260509114530 28 310 16.1 0.0 0.00 0.00 0.00 89 1009.0
20260509113030 30 310 14.5 0.0 0.00 0.00 0.00 79 1009.0
20260509111530 30 310 14.5 0.0 0.00 0.00 0.00 79 1009.0
20260509110031 30 300 9.7 0.0 0.00 0.00 0.00 79 1009.0
20260509104530 30 300 9.7 0.0 0.00 0.00 0.00 79 1009.0
20260509103031 30 310 11.3 0.0 0.00 0.00 0.00 74 1009.0
20260509101531 30 310 11.3 0.0 0.00 0.00 0.00 74 1008.0
20260509100031 30 330 16.1 0.0 0.00 0.00 0.00 74 1008.0
20260509094530 30 330 16.1 0.0 0.00 0.00 0.00 74 1008.0
20260509093031 30 320 16.1 0.0 0.00 0.00 0.00 74 1008.0
20260509091531 30 320 16.1 0.0 0.00 0.00 0.00 74 1007.0
20260509090031 30 320 14.5 0.0 0.00 0.00 0.00 74 1007.0
20260509084531 30 320 14.5 0.0 0.00 0.00 0.00 74 1007.0
20260509083030 30 320 20.9 0.0 0.00 0.00 0.00 70 1007.0
20260509081515 32 358 8.0 8.0 0.03 0.00 0.00 69 1007.0
20260509080017 33 358 8.0 8.0 0.00 0.00 0.00 69 1007.0
20260509074514 33 358 8.0 8.0 0.00 0.00 0.00 67 1007.0
20260509073017 33 358 8.0 8.0 0.00 0.00 0.00 67 1007.0
20260509071515 33 17 9.7 6.4 0.00 0.00 0.00 64 1007.0
20260509070018 33 17 9.7 6.4 0.00 0.00 0.00 65 1007.0
20260509064517 33 17 9.7 6.4 0.00 0.00 0.00 64 1007.0
20260509063019 33 17 9.7 6.4 0.00 0.00 0.00 64 1008.0
20260509061517 33 31 8.0 4.8 0.00 0.00 0.00 64 1008.0
20260509060026 33 31 8.0 4.8 0.00 0.00 0.00 64 1008.0
20260509054517 33 31 8.0 4.8 0.00 0.00 0.00 64 1008.0
20260509053021 33 37 8.0 4.8 0.00 0.00 0.00 63 1008.0
20260509051517 32 54 8.0 6.4 0.00 0.00 0.00 64 1009.0
20260509050028 32 54 8.0 6.4 0.00 0.00 0.00 64 1009.0
20260509044520 32 54 8.0 6.4 0.00 0.00 0.00 64 1009.0
20260509043024 31 61 9.7 8.0 0.00 0.00 0.00 65 1010.0
20260509041518 32 70 8.0 8.0 0.00 0.00 0.00 67 1010.0
20260509040034 32 70 8.0 8.0 0.00 0.00 0.00 67 1010.0
20260509034521 32 70 8.0 8.0 0.03 0.00 0.00 67 1010.0
20260509033025 32 70 8.0 8.0 0.00 0.00 0.00 67 1010.0
20260509031521 32 87 8.0 8.0 0.00 0.00 0.00 70 1011.0
20260509030031 32 87 8.0 8.0 0.00 0.00 0.00 70 1011.0
20260509024524 32 87 8.0 8.0 0.00 0.00 0.00 71 1011.0
20260509023032 32 87 8.0 8.0 0.00 0.00 0.00 71 1011.0
20260509021521 31 101 6.4 8.0 0.00 0.00 0.00 76 1011.0
20260509020025 31 101 6.4 8.0 0.00 0.00 0.00 75 1011.0
20260509014519 31 101 6.4 8.0 0.00 0.00 0.00 81 1011.0
20260509013027 31 101 6.4 8.0 0.00 0.00 0.00 81 1011.0
20260509011524 30 105 6.4 6.4 0.00 0.00 0.00 88 1011.0
20260509010028 30 105 6.4 6.4 0.00 0.00 0.00 86 1011.0
20260509004520 28 98 4.8 4.8 0.00 0.00 0.00 87 1011.0
20260509003021 29 105 6.4 6.4 0.00 0.00 0.00 88 1011.0
20260509001518 28 117 4.8 6.4 0.00 0.00 0.00 91 1010.0
20260509000039 28 117 4.8 6.4 0.00 0.00 0.00 91 1010.0
20260508234519 28 117 4.8 6.4 0.00 0.00 0.00 91 1010.0
20260508233026 28 121 3.2 4.8 0.00 0.00 0.00 90 1010.0
20260508231518 27 158 4.8 4.8 0.00 0.00 0.00 91 1009.0
20260508230024 27 158 4.8 4.8 0.00 0.00 0.00 92 1009.0
20260508224517 27 158 4.8 4.8 0.00 0.00 0.00 93 1009.0
20260508223024 27 158 4.8 4.8 0.00 0.00 0.00 93 1009.0
20260508221521 27 156 3.2 3.2 0.00 0.00 0.00 93 1009.0
20260508220032 27 156 3.2 3.2 0.00 0.00 0.00 93 1009.0
20260508214518 27 156 3.2 3.2 0.00 0.00 0.00 93 1009.0
20260508213022 27 156 3.2 3.2 0.00 0.00 0.00 93 1009.0
20260508211520 28 157 4.8 4.8 0.00 0.00 0.00 93 1009.0